• In Hungary
  • List of Countries
  • For 7 days
  • Water Temperature
  • Satellite Maps
  • Weather Map
  • News
  • Weather Widgets
  • user-avatar
    Login

    Hourly Weather Kachkan

    Today, 28 May, Monday

    Time Temperature Precipitation Wind Pressure Humidity
    00:00 +11°C° 0 mm 3 mps 755 mmHg 61%
    01:00 +11°C° 0 mm 3 mps 755 mmHg 61%
    02:00 +10°C° 0 mm 3 mps 755 mmHg 61%
    03:00 +10°C° 0 mm 3 mps 755 mmHg 60%
    04:00 +10°C° 0 mm 3 mps 755 mmHg 63%
    05:00 +10°C° 0 mm 3 mps 755 mmHg 65%
    06:00 +10°C° 0 mm 3 mps 755 mmHg 68%
    07:00 +13°C° 0 mm 3 mps 755 mmHg 63%
    08:00 +15°C° 0 mm 4 mps 755 mmHg 58%
    09:00 +18°C° 0 mm 4 mps 755 mmHg 53%
    10:00 +19°C° 0 mm 4 mps 755 mmHg 50%
    11:00 +20°C° 0 mm 4 mps 755 mmHg 46%
    12:00 +21°C° 0 mm 5 mps 755 mmHg 43%
    13:00 +22°C° 0 mm 5 mps 755 mmHg 42%
    14:00 +23°C° 0 mm 5 mps 755 mmHg 41%
    15:00 +23°C° 0 mm 5 mps 754 mmHg 40%
    16:00 +23°C° 0 mm 4 mps 754 mmHg 45%
    17:00 +24°C° 0 mm 3 mps 754 mmHg 49%
    18:00 +22°C° 0 mm 3 mps 754 mmHg 54%
    19:00 +21°C° 0 mm 3 mps 754 mmHg 58%
    20:00 +19°C° 0 mm 3 mps 754 mmHg 62%
    21:00 +17°C° 0 mm 3 mps 754 mmHg 66%
    22:00 +17°C° 0 mm 4 mps 755 mmHg 69%
    23:00 +17°C° 0 mm 4 mps 755 mmHg 73%

    Tomorrow, 29 May, Tuesday

    Time Temperature Precipitation Wind Pressure Humidity
    00:00 +15°C° 0 mm 5 mps 755 mmHg 76%
    01:00 +15°C° 0 mm 5 mps 756 mmHg 72%
    02:00 +14°C° 0 mm 6 mps 756 mmHg 68%
    03:00 +13°C° 0 mm 6 mps 756 mmHg 64%
    04:00 +13°C° 0 mm 6 mps 756 mmHg 65%
    05:00 +13°C° 0 mm 6 mps 756 mmHg 67%
    06:00 +11°C° 0 mm 6 mps 757 mmHg 69%
    07:00 +14°C° 0 mm 7 mps 757 mmHg 65%
    08:00 +15°C° 0 mm 7 mps 757 mmHg 61%
    09:00 +16°C° 0 mm 8 mps 757 mmHg 57%
    10:00 +17°C° 0 mm 8 mps 757 mmHg 54%
    11:00 +18°C° 0 mm 8 mps 757 mmHg 52%
    12:00 +20°C° 0 mm 8 mps 757 mmHg 49%
    13:00 +20°C° 0 mm 8 mps 757 mmHg 48%
    14:00 +20°C° 0 mm 7 mps 757 mmHg 47%
    15:00 +20°C° 0 mm 7 mps 756 mmHg 45%
    16:00 +18°C° 0 mm 7 mps 756 mmHg 47%
    17:00 +19°C° 0 mm 6 mps 756 mmHg 49%
    18:00 +17°C° 0 mm 6 mps 756 mmHg 51%
    19:00 +16°C° 0 mm 5 mps 756 mmHg 53%
    20:00 +14°C° 0 mm 5 mps 756 mmHg 54%
    21:00 +13°C° 0 mm 4 mps 756 mmHg 56%
    22:00 +12°C° 0 mm 4 mps 756 mmHg 55%
    23:00 +12°C° 0 mm 4 mps 755 mmHg 54%

    Day after tomorrow, 30 May, Wednesday

    Time Temperature Precipitation Wind Pressure Humidity
    00:00 +11°C° 0 mm 4 mps 755 mmHg 53%
    01:00 +11°C° 0 mm 4 mps 755 mmHg 53%
    02:00 +10°C° 0 mm 4 mps 755 mmHg 54%
    03:00 +10°C° 0 mm 4 mps 755 mmHg 54%
    04:00 +10°C° 0 mm 4 mps 755 mmHg 56%
    05:00 +10°C° 0 mm 4 mps 754 mmHg 59%
    06:00 +10°C° 0 mm 4 mps 754 mmHg 61%
    07:00 +12°C° 0 mm 4 mps 754 mmHg 56%
    08:00 +14°C° 0 mm 4 mps 754 mmHg 50%
    09:00 +17°C° 0 mm 4 mps 754 mmHg 45%
    10:00 +19°C° 0 mm 4 mps 754 mmHg 43%
    11:00 +20°C° 0 mm 4 mps 754 mmHg 40%
    12:00 +21°C° 0 mm 4 mps 753 mmHg 38%
    13:00 +21°C° 0 mm 4 mps 753 mmHg 38%
    14:00 +22°C° 0 mm 4 mps 752 mmHg 38%
    15:00 +23°C° 0 mm 4 mps 752 mmHg 38%
    16:00 +22°C° 0 mm 4 mps 751 mmHg 41%
    17:00 +22°C° 0 mm 3 mps 751 mmHg 45%
    18:00 +22°C° 0 mm 3 mps 750 mmHg 48%
    19:00 +20°C° 0 mm 2 mps 750 mmHg 50%
    20:00 +18°C° 0 mm 2 mps 750 mmHg 52%
    21:00 +16°C° 0 mm 2 mps 750 mmHg 54%
    22:00 +15°C° 0 mm 2 mps 750 mmHg 53%
    23:00 +15°C° 0 mm 2 mps 749 mmHg 53%

    31 May, Thursday

    Time Temperature Precipitation Wind Pressure Humidity
    00:00 +14°C° 0 mm 2 mps 749 mmHg 53%
    01:00 +14°C° 0 mm 2 mps 749 mmHg 53%
    02:00 +13°C° 0 mm 2 mps 748 mmHg 53%
    03:00 +13°C° 0 mm 2 mps 748 mmHg 53%
    04:00 +13°C° 0 mm 2 mps 748 mmHg 56%
    05:00 +13°C° 0 mm 2 mps 748 mmHg 59%
    06:00 +14°C° 0 mm 2 mps 747 mmHg 62%
    07:00 +16°C° 0 mm 2 mps 747 mmHg 58%
    08:00 +18°C° 0 mm 2 mps 747 mmHg 53%
    09:00 +20°C° 0 mm 3 mps 747 mmHg 49%
    10:00 +21°C° 0 mm 3 mps 747 mmHg 45%
    11:00 +24°C° 0 mm 3 mps 746 mmHg 42%
    12:00 +25°C° 0 mm 3 mps 746 mmHg 38%
    13:00 +25°C° 0 mm 3 mps 745 mmHg 38%
    14:00 +26°C° 0 mm 2 mps 745 mmHg 37%
    15:00 +26°C° 0 mm 2 mps 745 mmHg 37%
    16:00 +26°C° 0 mm 2 mps 744 mmHg 39%
    17:00 +26°C° 0 mm 1 mps 744 mmHg 41%
    18:00 +26°C° 0 mm 1 mps 744 mmHg 42%
    19:00 +24°C° 0 mm 1 mps 744 mmHg 46%
    20:00 +22°C° 0 mm 1 mps 744 mmHg 49%
    21:00 +20°C° 0 mm 1 mps 744 mmHg 52%
    22:00 +19°C° 0 mm 1 mps 744 mmHg 53%
    23:00 +19°C° 0 mm 1 mps 743 mmHg 53%

    1 June, Friday

    Time Temperature Precipitation Wind Pressure Humidity
    00:00 +18°C° 0 mm 1 mps 743 mmHg 54%
    01:00 +18°C° 0 mm 1 mps 743 mmHg 55%
    02:00 +16°C° 0 mm 1 mps 743 mmHg 56%
    03:00 +16°C° 0 mm 1 mps 743 mmHg 57%
    04:00 +16°C° 0 mm 1 mps 743 mmHg 58%
    05:00 +18°C° 0 mm 1 mps 743 mmHg 60%
    06:00 +18°C° 0 mm 1 mps 743 mmHg 61%
    07:00 +20°C° 0 mm 1 mps 743 mmHg 56%
    08:00 +22°C° 0 mm 1 mps 743 mmHg 51%
    09:00 +24°C° 0 mm 1 mps 743 mmHg 46%
    10:00 +25°C° 0 mm 1 mps 743 mmHg 44%
    11:00 +25°C° 0 mm 1 mps 743 mmHg 43%
    12:00 +26°C° 0 mm 1 mps 743 mmHg 41%
    13:00 +26°C° 0.2 mm 2 mps 743 mmHg 45%
    14:00 +25°C° 0.2 mm 2 mps 743 mmHg 50%
    15:00 +25°C° 0.2 mm 2 mps 743 mmHg 55%
    16:00 +24°C° 0.1 mm 2 mps 743 mmHg 59%
    17:00 +24°C° 0.1 mm 2 mps 743 mmHg 63%
    18:00 +23°C° 0.1 mm 2 mps 743 mmHg 68%
    19:00 +21°C° 0 mm 2 mps 743 mmHg 73%
    20:00 +19°C° 0 mm 2 mps 743 mmHg 78%
    21:00 +18°C° 0 mm 2 mps 744 mmHg 83%
    22:00 +18°C° 0 mm 3 mps 744 mmHg 83%
    23:00 +17°C° 0 mm 3 mps 744 mmHg 84%

    2 June, Saturday

    Time Temperature Precipitation Wind Pressure Humidity
    00:00 +17°C° 0 mm 4 mps 744 mmHg 85%
    01:00 +17°C° 0.1 mm 4 mps 744 mmHg 85%
    02:00 +15°C° 0.1 mm 5 mps 744 mmHg 86%
    03:00 +14°C° 0.1 mm 5 mps 744 mmHg 86%
    04:00 +14°C° 0 mm 5 mps 744 mmHg 85%
    05:00 +14°C° 0 mm 6 mps 744 mmHg 85%
    06:00 +13°C° 0 mm 6 mps 745 mmHg 84%
    07:00 +14°C° 0 mm 6 mps 745 mmHg 83%
    08:00 +14°C° 0 mm 6 mps 745 mmHg 82%
    09:00 +15°C° 0 mm 6 mps 746 mmHg 81%
    10:00 +15°C° 0 mm 6 mps 746 mmHg 80%
    11:00 +15°C° 0 mm 6 mps 746 mmHg 80%
    12:00 +15°C° 0 mm 6 mps 747 mmHg 79%
    13:00 +15°C° 0 mm 6 mps 747 mmHg 78%
    14:00 +15°C° 0 mm 5 mps 747 mmHg 78%
    15:00 +15°C° 0 mm 5 mps 747 mmHg 77%
    16:00 +15°C° 0 mm 5 mps 747 mmHg 76%
    17:00 +16°C° 0 mm 5 mps 747 mmHg 76%
    18:00 +16°C° 0 mm 5 mps 748 mmHg 76%
    19:00 +15°C° 0 mm 5 mps 748 mmHg 79%
    20:00 +14°C° 0 mm 4 mps 748 mmHg 82%
    21:00 +13°C° 0 mm 4 mps 748 mmHg 86%
    22:00 +12°C° 0 mm 3 mps 749 mmHg 86%
    23:00 +12°C° 0 mm 3 mps 749 mmHg 86%
    Show more